Weather History for Springfield, OH

Change the Weather History Date:

Tuesday, May 6, 2014

  Actual Average (KDAY) Record (KDAY)
Temperature  
Mean Temperature 56 °F 58 °F  
Max Temperature 72 °F 69 °F 89 °F (1949)
Min Temperature 41 °F 48 °F 31 °F (1968)
Degree Days  
Heating Degree Days 8 7  
Month to date heating degree days 48  
Since 1 July heating degree days 5499  
Cooling Degree Days 0 1  
Month to date cooling degree days 6  
Year to date cooling degree days 16  
Growing Degree Days 6 (Base 50)    
Moisture  
Dew Point 41 °F    
Average Humidity 55    
Maximum Humidity 82    
Minimum Humidity 33    
Precipitation  
Precipitation 0.00 in 0.15 in 0.91 in (1971)
Month to date precipitation 0.90  
Year to date precipitation 13.28  
Snow  
Snow 0.00 in 0.00 in 0.00 in ()
Month to date snowfall 0.0  
Since 1 July snowfall 23.3  
Snow Depth -    
Sea Level Pressure  
Sea Level Pressure 29.98 in    
Wind  
Wind Speed 10 mph (ENE)    
Max Wind Speed 14 mph    
Max Gust Speed 21 mph    
Visibility 8 miles    
Events      
T = Trace of Precipitation, MM = Missing Value Source: NWS Daily Summary

Daily Weather History Graph

Daily Weather History Graph

Search for Another Location

Airport:

Trip Planner

Search our weather history database for the weather conditions in past years. The results will help you decide how hot, cold, wet, or windy it might be!

Date:

Astronomy

May. 06, 2014 Rise Set
Actual Time 6:29 AM EDT 8:34 PM EDT
Civil Twilight 6:00 AM EDT 9:04 PM EDT
Nautical Twilight 5:23 AM EDT 9:41 PM EDT
Astronomical Twilight 4:44 AM EDT 10:20 PM EDT
Moon 12:44 PM EDT (5/6) 1:53 AM EDT (5/6)
Length of Visible Light 15h 04m
Length of Day
14h 04m
Waxing Crescent, 46% of the Moon is Illuminated
May 6
Waxing Crescent
May 6
First Quarter
May 14
Full
May 21
Last Quarter
May 28
New

Hourly Weather History & Observations

Time (EDT) Temp. Windchill Dew Point Humidity Pressure Visibility Wind Dir Wind Speed Gust Speed Precip Events Conditions
12:56 AM 43.9 °F 39.9 °F 37.9 °F 80% 29.95 in 9.0 mi NE 6.9 mph - N/A   Clear
1:56 AM 43.0 °F 39.5 °F 36.9 °F 79% 29.94 in 9.0 mi NE 5.8 mph - N/A   Clear
2:56 AM 41.9 °F 36.9 °F 36.9 °F 82% 29.95 in 9.0 mi NNE 8.1 mph - N/A   Clear
3:56 AM 43.9 °F 39.9 °F 38.8 °F 82% 29.95 in 8.0 mi NE 6.9 mph - N/A   Scattered Clouds
7:56 AM 47.8 °F - 39.9 °F 74% 30.01 in 7.0 mi ENE 12.7 mph - N/A   Clear
8:56 AM 52.0 °F - 39.9 °F 63% 30.02 in 7.0 mi East 13.8 mph - N/A   Clear
9:56 AM 56.8 °F - 41.0 °F 55% 30.03 in 7.0 mi East 13.8 mph - N/A   Clear
10:56 AM 59.9 °F - 39.9 °F 48% 30.02 in 7.0 mi ENE 13.8 mph - N/A   Clear
11:56 AM 63.0 °F - 38.8 °F 41% 30.02 in 8.0 mi East 12.7 mph - N/A   Clear
12:56 PM 65.8 °F - 37.9 °F 36% 30.00 in 7.0 mi East 11.5 mph 20.7 mph N/A   Clear
1:56 PM 68.9 °F - 39.9 °F 35% 29.99 in 8.0 mi ENE 12.7 mph - N/A   Clear
2:56 PM 70.9 °F - 41.0 °F 34% 29.99 in 8.0 mi NE 13.8 mph 17.3 mph N/A   Clear
4:56 PM 72.9 °F - 41.9 °F 33% 29.95 in 8.0 mi East 12.7 mph - 0.00 in   Clear
5:56 PM 72.0 °F - 41.0 °F 33% 29.96 in 7.0 mi East 12.7 mph - N/A   Clear
6:56 PM 70.9 °F - 41.9 °F 35% 29.96 in 7.0 mi ENE 12.7 mph - N/A   Clear
7:56 PM 66.9 °F - 43.0 °F 42% 29.96 in 7.0 mi East 8.1 mph - N/A   Clear
8:56 PM 59.0 °F - 43.9 °F 57% 29.97 in 9.0 mi East 6.9 mph - N/A   Clear
9:56 PM 56.8 °F - 45.0 °F 64% 29.99 in 9.0 mi ENE 5.8 mph - N/A   Mostly Cloudy
10:56 PM 55.9 °F - 43.9 °F 64% 29.96 in 9.0 mi East 10.4 mph - N/A   Clear
11:56 PM 55.9 °F - 43.9 °F 64% 29.98 in 9.0 mi ENE 8.1 mph - N/A   Clear